Time,TemperatureF,DewpointF,PressureIn,WindDirection,WindDirectionDegrees,WindSpeedMPH,WindSpeedGustMPH,Humidity,HourlyPrecipIn,Conditions,Clouds,dailyrainin,SolarRadiationWatts/m^2,SoftwareType,DateUTC
2013-04-27 00:00:00,54.3,36.6,30.42,ENE,76,0.0,3.0,51,0.00,,---,0.00,0.00,VWS V14.01,2013-04-27 04:00:00,
2013-04-27 00:01:00,54.3,36.6,30.42,ENE,76,0.0,3.0,51,0.00,,---,0.00,0.00,VWS V14.01,2013-04-27 04:01:00,
2013-04-27 00:02:00,54.4,36.7,30.42,ENE,76,0.0,3.0,51,0.00,,---,0.00,0.00,VWS V14.01,2013-04-27 04:02:00,
2013-04-27 00:07:00,54.3,36.6,30.42,East,80,0.0,0.0,51,0.00,,---,0.00,0.00,VWS V14.01,2013-04-27 04:07:00,
2013-04-27 00:12:00,54.3,36.1,30.42,East,80,0.0,0.0,50,0.00,,---,0.00,0.00,VWS V14.01,2013-04-27 04:12:00,
2013-04-27 00:17:00,54.4,37.6,30.42,East,80,0.0,0.0,53,0.00,,---,0.00,0.00,VWS V14.01,2013-04-27 04:17:00,
2013-04-27 00:22:00,54.3,37.1,30.43,East,80,0.0,0.0,52,0.00,,---,0.00,0.00,VWS V14.01,2013-04-27 04:22:00,
2013-04-27 00:28:00,54.3,38.0,30.42,East,80,0.0,0.0,54,0.00,,---,0.00,0.00,VWS V14.01,2013-04-27 04:28:00,
2013-04-27 00:30:00,54.2,38.9,30.43,East,80,0.0,0.0,56,0.00,,---,0.00,0.00,VWS V14.01,2013-04-27 04:30:00,
2013-04-27 00:33:00,54.2,38.9,30.43,East,80,0.0,0.0,56,0.00,,---,0.00,0.00,VWS V14.01,2013-04-27 04:33:00,
2013-04-27 00:38:00,54.0,38.7,30.43,East,80,0.0,0.0,56,0.00,,---,0.00,0.00,VWS V14.01,2013-04-27 04:38:00,
2013-04-27 00:43:00,53.9,39.0,30.43,East,80,0.0,0.0,57,0.00,,---,0.00,0.00,VWS V14.01,2013-04-27 04:43:00,
2013-04-27 00:48:00,53.7,39.3,30.42,East,80,0.0,0.0,58,0.00,,---,0.00,0.00,VWS V14.01,2013-04-27 04:48:00,
2013-04-27 00:53:00,53.5,38.2,30.43,East,80,0.0,0.0,56,0.00,,---,0.00,0.00,VWS V14.01,2013-04-27 04:53:00,
2013-04-27 00:58:00,53.3,37.6,30.43,East,80,0.0,0.0,55,0.00,,---,0.00,0.00,VWS V14.01,2013-04-27 04:58:00,
2013-04-27 01:00:00,53.2,37.0,30.43,East,80,0.0,0.0,54,0.00,,---,0.00,0.00,VWS V14.01,2013-04-27 05:00:00,
2013-04-27 01:03:00,53.2,37.0,30.43,East,80,0.0,0.0,54,0.00,,---,0.00,0.00,VWS V14.01,2013-04-27 05:03:00,
2013-04-27 01:08:00,53.1,36.9,30.43,East,80,0.0,0.0,54,0.00,,---,0.00,0.00,VWS V14.01,2013-04-27 05:08:00,
2013-04-27 01:14:00,53.0,36.8,30.43,East,80,0.0,0.0,54,0.00,,---,0.00,0.00,VWS V14.01,2013-04-27 05:14:00,
2013-04-27 01:19:00,53.0,36.3,30.43,East,80,0.0,0.0,53,0.00,,---,0.00,0.00,VWS V14.01,2013-04-27 05:19:00,
2013-04-27 01:24:00,53.0,36.8,30.43,East,80,0.0,0.0,54,0.00,,---,0.00,0.00,VWS V14.01,2013-04-27 05:24:00,
2013-04-27 01:29:00,53.0,36.8,30.43,East,80,0.0,0.0,54,0.00,,---,0.00,0.00,VWS V14.01,2013-04-27 05:29:00,
2013-04-27 01:30:00,53.0,36.8,30.43,East,80,0.0,0.0,54,0.00,,---,0.00,0.00,VWS V14.01,2013-04-27 05:30:00,
2013-04-27 01:34:00,53.0,36.8,30.43,East,80,0.0,0.0,54,0.00,,---,0.00,0.00,VWS V14.01,2013-04-27 05:34:00,
2013-04-27 01:39:00,53.0,37.3,30.43,East,80,0.0,0.0,55,0.00,,---,0.00,0.00,VWS V14.01,2013-04-27 05:39:00,
2013-04-27 01:44:00,53.0,36.8,30.43,East,80,0.0,0.0,54,0.00,,---,0.00,0.00,VWS V14.01,2013-04-27 05:44:00,
2013-04-27 01:49:00,53.0,36.8,30.42,East,80,0.0,0.0,54,0.00,,---,0.00,0.00,VWS V14.01,2013-04-27 05:49:00,
2013-04-27 01:54:00,53.0,37.3,30.42,East,80,0.0,0.0,55,0.00,,---,0.00,0.00,VWS V14.01,2013-04-27 05:54:00,
2013-04-27 02:00:00,53.0,36.8,30.42,East,80,0.0,0.0,54,0.00,,---,0.00,0.00,VWS V14.01,2013-04-27 06:00:00,
2013-04-27 02:05:00,53.0,36.8,30.42,East,80,0.0,1.0,54,0.00,,---,0.00,0.00,VWS V14.01,2013-04-27 06:05:00,
2013-04-27 02:10:00,53.1,36.9,30.41,East,80,0.0,1.0,54,0.00,,---,0.00,0.00,VWS V14.01,2013-04-27 06:10:00,
2013-04-27 02:15:00,53.1,36.9,30.41,East,92,0.0,1.0,54,0.00,,---,0.00,0.00,VWS V14.01,2013-04-27 06:15:00,
2013-04-27 02:20:00,53.1,36.9,30.42,East,92,0.0,1.0,54,0.00,,---,0.00,0.00,VWS V14.01,2013-04-27 06:20:00,
2013-04-27 02:25:00,53.2,38.4,30.42,East,92,0.0,1.0,57,0.00,,---,0.00,0.00,VWS V14.01,2013-04-27 06:25:00,
2013-04-27 02:30:00,53.2,38.4,30.41,East,92,0.0,1.0,57,0.00,,---,0.00,0.00,VWS V14.01,2013-04-27 06:30:00,
2013-04-27 02:35:00,53.2,39.3,30.41,East,92,0.0,0.0,59,0.00,,---,0.00,0.00,VWS V14.01,2013-04-27 06:35:00,
2013-04-27 02:40:00,53.2,38.4,30.41,East,92,0.0,0.0,57,0.00,,---,0.00,0.00,VWS V14.01,2013-04-27 06:40:00,
2013-04-27 02:46:00,53.1,37.8,30.41,East,92,0.0,0.0,56,0.00,,---,0.00,0.00,VWS V14.01,2013-04-27 06:46:00,
2013-04-27 02:51:00,53.1,37.8,30.40,East,92,0.0,0.0,56,0.00,,---,0.00,0.00,VWS V14.01,2013-04-27 06:51:00,
2013-04-27 02:56:00,53.0,36.8,30.40,East,92,0.0,0.0,54,0.00,,---,0.00,0.00,VWS V14.01,2013-04-27 06:56:00,
2013-04-27 03:00:00,53.0,36.8,30.40,East,92,0.0,0.0,54,0.00,,---,0.00,0.00,VWS V14.01,2013-04-27 07:00:00,
2013-04-27 03:01:00,53.0,36.8,30.40,East,92,0.0,0.0,54,0.00,,---,0.00,0.00,VWS V14.01,2013-04-27 07:01:00,
2013-04-27 03:06:00,52.9,36.7,30.40,East,92,0.0,0.0,54,0.00,,---,0.00,0.00,VWS V14.01,2013-04-27 07:06:00,
2013-04-27 03:11:00,52.9,36.7,30.40,East,92,0.0,0.0,54,0.00,,---,0.00,0.00,VWS V14.01,2013-04-27 07:11:00,
2013-04-27 03:16:00,52.9,36.7,30.40,East,92,0.0,0.0,54,0.00,,---,0.00,0.00,VWS V14.01,2013-04-27 07:16:00,
2013-04-27 03:21:00,52.9,37.7,30.40,East,92,0.0,0.0,56,0.00,,---,0.00,0.00,VWS V14.01,2013-04-27 07:21:00,
2013-04-27 03:26:00,52.9,37.2,30.40,East,92,0.0,0.0,55,0.00,,---,0.00,0.00,VWS V14.01,2013-04-27 07:26:00,
2013-04-27 03:30:00,52.9,38.1,30.40,East,92,0.0,0.0,57,0.00,,---,0.00,0.00,VWS V14.01,2013-04-27 07:30:00,
2013-04-27 03:32:00,52.9,38.1,30.40,East,92,0.0,0.0,57,0.00,,---,0.00,0.00,VWS V14.01,2013-04-27 07:32:00,
2013-04-27 03:37:00,52.9,39.0,30.40,East,92,0.0,0.0,59,0.00,,---,0.00,0.00,VWS V14.01,2013-04-27 07:37:00,
2013-04-27 03:42:00,52.8,38.9,30.40,East,92,0.0,0.0,59,0.00,,---,0.00,0.00,VWS V14.01,2013-04-27 07:42:00,
2013-04-27 03:47:00,52.7,38.8,30.40,East,92,0.0,0.0,59,0.00,,---,0.00,0.00,VWS V14.01,2013-04-27 07:47:00,
2013-04-27 03:52:00,52.7,38.8,30.40,East,92,0.0,0.0,59,0.00,,---,0.00,0.00,VWS V14.01,2013-04-27 07:52:00,
2013-04-27 03:57:00,52.6,39.1,30.40,East,92,0.0,0.0,60,0.00,,---,0.00,0.00,VWS V14.01,2013-04-27 07:57:00,
2013-04-27 04:00:00,52.5,39.0,30.40,East,92,0.0,0.0,60,0.00,,---,0.00,0.00,VWS V14.01,2013-04-27 08:00:00,
2013-04-27 04:02:00,52.5,39.0,30.40,East,92,0.0,0.0,60,0.00,,---,0.00,0.00,VWS V14.01,2013-04-27 08:02:00,
2013-04-27 04:07:00,52.3,39.7,30.40,East,92,0.0,0.0,62,0.00,,---,0.00,0.00,VWS V14.01,2013-04-27 08:07:00,
2013-04-27 04:13:00,52.2,39.2,30.40,East,92,0.0,0.0,61,0.00,,---,0.00,0.00,VWS V14.01,2013-04-27 08:13:00,
2013-04-27 04:18:00,51.9,39.3,30.40,East,92,0.0,0.0,62,0.00,,---,0.00,0.00,VWS V14.01,2013-04-27 08:18:00,
2013-04-27 04:23:00,51.7,38.7,30.40,East,92,0.0,0.0,61,0.00,,---,0.00,0.00,VWS V14.01,2013-04-27 08:23:00,
2013-04-27 04:28:00,51.6,39.0,30.40,East,92,0.0,0.0,62,0.00,,---,0.00,0.00,VWS V14.01,2013-04-27 08:28:00,
2013-04-27 04:30:00,51.5,39.7,30.40,East,92,0.0,0.0,64,0.00,,---,0.00,0.00,VWS V14.01,2013-04-27 08:30:00,
2013-04-27 04:33:00,51.5,39.7,30.40,East,92,0.0,0.0,64,0.00,,---,0.00,0.00,VWS V14.01,2013-04-27 08:33:00,
2013-04-27 04:38:00,51.3,38.7,30.39,East,92,0.0,0.0,62,0.00,,---,0.00,0.00,VWS V14.01,2013-04-27 08:38:00,
2013-04-27 04:43:00,51.1,38.5,30.39,East,92,0.0,0.0,62,0.00,,---,0.00,0.00,VWS V14.01,2013-04-27 08:43:00,
2013-04-27 04:48:00,50.9,38.4,30.40,East,92,0.0,0.0,62,0.00,,---,0.00,0.00,VWS V14.01,2013-04-27 08:48:00,
2013-04-27 04:54:00,50.8,38.3,30.40,East,92,0.0,0.0,62,0.00,,---,0.00,0.00,VWS V14.01,2013-04-27 08:54:00,
2013-04-27 04:59:00,50.7,38.2,30.40,East,92,0.0,0.0,62,0.00,,---,0.00,0.00,VWS V14.01,2013-04-27 08:59:00,
2013-04-27 05:00:00,50.7,39.4,30.40,East,92,0.0,0.0,65,0.00,,---,0.00,0.00,VWS V14.01,2013-04-27 09:00:00,
2013-04-27 05:04:00,50.7,39.8,30.40,East,92,0.0,0.0,66,0.00,,---,0.00,0.00,VWS V14.01,2013-04-27 09:04:00,
2013-04-27 05:09:00,50.7,40.2,30.39,East,92,0.0,0.0,67,0.00,,---,0.00,0.00,VWS V14.01,2013-04-27 09:09:00,
2013-04-27 05:14:00,50.6,39.7,30.40,East,92,0.0,0.0,66,0.00,,---,0.00,0.00,VWS V14.01,2013-04-27 09:14:00,
2013-04-27 05:19:00,50.4,39.9,30.39,East,92,0.0,0.0,67,0.00,,---,0.00,0.00,VWS V14.01,2013-04-27 09:19:00,
2013-04-27 05:24:00,50.2,39.7,30.38,East,92,0.0,0.0,67,0.00,,---,0.00,0.00,VWS V14.01,2013-04-27 09:24:00,
2013-04-27 05:29:00,50.1,40.3,30.38,East,92,0.0,1.0,69,0.00,,---,0.00,0.00,VWS V14.01,2013-04-27 09:29:00,
2013-04-27 05:30:00,50.0,39.9,30.38,East,92,0.0,1.0,68,0.00,,---,0.00,0.00,VWS V14.01,2013-04-27 09:30:00,
2013-04-27 05:35:00,50.0,39.9,30.39,East,92,0.0,0.0,68,0.00,,---,0.00,0.00,VWS V14.01,2013-04-27 09:35:00,
2013-04-27 05:40:00,49.9,38.6,30.38,East,92,0.0,0.0,65,0.00,,---,0.00,0.00,VWS V14.01,2013-04-27 09:40:00,
2013-04-27 05:45:00,50.0,39.5,30.38,East,92,0.0,0.0,67,0.00,,---,0.00,0.00,VWS V14.01,2013-04-27 09:45:00,
2013-04-27 05:50:00,50.0,39.9,30.38,East,92,0.0,0.0,68,0.00,,---,0.00,0.00,VWS V14.01,2013-04-27 09:50:00,
2013-04-27 05:55:00,50.1,40.3,30.38,East,92,0.0,0.0,69,0.00,,---,0.00,0.00,VWS V14.01,2013-04-27 09:55:00,
2013-04-27 06:00:00,50.1,40.3,30.39,East,92,0.0,0.0,69,0.00,,---,0.00,0.00,VWS V14.01,2013-04-27 10:00:00,
2013-04-27 06:05:00,50.2,40.8,30.38,East,92,0.0,0.0,70,0.00,,---,0.00,0.00,VWS V14.01,2013-04-27 10:05:00,
2013-04-27 06:10:00,50.1,40.7,30.38,East,92,0.0,0.0,70,0.00,,---,0.00,0.00,VWS V14.01,2013-04-27 10:10:00,
2013-04-27 06:15:00,50.1,40.3,30.38,East,92,0.0,0.0,69,0.00,,---,0.00,0.00,VWS V14.01,2013-04-27 10:15:00,
2013-04-27 06:21:00,50.1,41.1,30.38,East,92,0.0,0.0,71,0.00,,---,0.00,0.00,VWS V14.01,2013-04-27 10:21:00,
2013-04-27 06:26:00,50.0,41.3,30.38,SSW,201,0.0,2.0,72,0.00,,---,0.00,0.00,VWS V14.01,2013-04-27 10:26:00,
2013-04-27 06:30:00,50.0,41.7,30.38,SSW,201,0.0,2.0,73,0.00,,---,0.00,0.00,VWS V14.01,2013-04-27 10:30:00,
2013-04-27 06:31:00,50.0,41.7,30.38,SSW,201,0.0,2.0,73,0.00,,---,0.00,0.00,VWS V14.01,2013-04-27 10:31:00,
2013-04-27 06:36:00,50.0,42.0,30.38,SSW,201,0.0,0.0,74,0.00,,---,0.00,0.00,VWS V14.01,2013-04-27 10:36:00,
2013-04-27 06:41:00,50.0,42.0,30.38,SSW,201,0.0,0.0,74,0.00,,---,0.00,0.00,VWS V14.01,2013-04-27 10:41:00,
2013-04-27 06:46:00,50.0,42.0,30.38,SSW,201,0.0,0.0,74,0.00,,---,0.00,0.00,VWS V14.01,2013-04-27 10:46:00,
2013-04-27 06:51:00,50.0,42.4,30.39,SSW,201,0.0,0.0,75,0.00,,---,0.00,5.00,VWS V14.01,2013-04-27 10:51:00,
2013-04-27 06:56:00,50.0,42.4,30.39,SSW,201,0.0,0.0,75,0.00,,---,0.00,9.00,VWS V14.01,2013-04-27 10:56:00,
2013-04-27 07:00:00,50.0,42.4,30.39,SSW,201,0.0,0.0,75,0.00,,---,0.00,12.00,VWS V14.01,2013-04-27 11:00:00,
2013-04-27 07:02:00,50.0,42.4,30.39,SSW,201,0.0,0.0,75,0.00,,---,0.00,12.00,VWS V14.01,2013-04-27 11:02:00,
2013-04-27 07:07:00,49.9,42.0,30.39,ESE,119,0.0,0.0,74,0.00,,---,0.00,16.00,VWS V14.01,2013-04-27 11:07:00,
2013-04-27 07:12:00,49.9,42.7,30.39,ESE,119,0.0,0.0,76,0.00,,---,0.00,14.00,VWS V14.01,2013-04-27 11:12:00,
2013-04-27 07:17:00,49.8,42.5,30.40,ESE,119,0.0,0.0,76,0.00,,---,0.00,14.00,VWS V14.01,2013-04-27 11:17:00,
2013-04-27 07:22:00,49.7,41.0,30.40,SE,134,0.0,3.0,72,0.00,,---,0.00,19.00,VWS V14.01,2013-04-27 11:22:00,
2013-04-27 07:27:00,49.7,40.3,30.40,SE,146,0.0,3.0,70,0.00,,---,0.00,32.00,VWS V14.01,2013-04-27 11:27:00,
2013-04-27 07:30:00,49.8,41.5,30.40,SE,146,0.0,3.0,73,0.00,,---,0.00,44.00,VWS V14.01,2013-04-27 11:30:00,
2013-04-27 07:32:00,49.8,41.5,30.40,SE,146,0.0,3.0,73,0.00,,---,0.00,44.00,VWS V14.01,2013-04-27 11:32:00,
2013-04-27 07:37:00,49.9,41.6,30.40,SE,146,0.0,0.0,73,0.00,,---,0.00,49.00,VWS V14.01,2013-04-27 11:37:00,
2013-04-27 07:42:00,50.0,42.0,30.40,SE,146,0.0,0.0,74,0.00,,---,0.00,49.00,VWS V14.01,2013-04-27 11:42:00,
2013-04-27 07:48:00,50.0,42.0,30.40,SE,146,0.0,0.0,74,0.00,,---,0.00,58.00,VWS V14.01,2013-04-27 11:48:00,
2013-04-27 07:53:00,50.0,41.3,30.40,SE,146,0.0,0.0,72,0.00,,---,0.00,65.00,VWS V14.01,2013-04-27 11:53:00,
2013-04-27 07:58:00,50.0,42.4,30.40,SE,146,0.0,0.0,75,0.00,,---,0.00,74.00,VWS V14.01,2013-04-27 11:58:00,
2013-04-27 08:00:00,50.1,43.5,30.40,SSE,155,0.0,0.0,78,0.00,,---,0.00,84.00,VWS V14.01,2013-04-27 12:00:00,
2013-04-27 08:03:00,50.2,43.6,30.39,SSE,155,0.0,0.0,78,0.00,,---,0.00,84.00,VWS V14.01,2013-04-27 12:03:00,
2013-04-27 08:08:00,50.3,44.0,30.40,SSW,199,0.0,3.0,79,0.00,,---,0.00,109.00,VWS V14.01,2013-04-27 12:08:00,
2013-04-27 08:13:00,50.4,43.5,30.40,SSW,199,0.0,3.0,77,0.00,,---,0.00,146.00,VWS V14.01,2013-04-27 12:13:00,
2013-04-27 08:18:00,50.6,43.3,30.41,SSW,206,2.0,3.0,76,0.00,,---,0.00,137.00,VWS V14.01,2013-04-27 12:18:00,
2013-04-27 08:23:00,50.7,42.4,30.41,SSW,207,0.0,3.0,73,0.00,,---,0.00,95.00,VWS V14.01,2013-04-27 12:23:00,
2013-04-27 08:28:00,50.9,42.9,30.41,SSW,207,0.0,3.0,74,0.00,,---,0.00,135.00,VWS V14.01,2013-04-27 12:28:00,
2013-04-27 08:30:00,51.2,42.5,30.41,SSW,204,0.0,3.0,72,0.00,,---,0.00,132.00,VWS V14.01,2013-04-27 12:30:00,
2013-04-27 08:34:00,51.3,43.0,30.41,SSW,204,0.0,0.0,73,0.00,,---,0.00,128.00,VWS V14.01,2013-04-27 12:34:00,
2013-04-27 08:39:00,51.8,43.8,30.40,SSW,204,0.0,0.0,74,0.00,,---,0.00,137.00,VWS V14.01,2013-04-27 12:39:00,
2013-04-27 08:44:00,52.3,43.5,30.40,SSW,204,0.0,0.0,72,0.00,,---,0.00,185.00,VWS V14.01,2013-04-27 12:44:00,
2013-04-27 08:49:00,52.9,43.4,30.40,SSE,159,2.0,3.0,70,0.00,,---,0.00,192.00,VWS V14.01,2013-04-27 12:49:00,
2013-04-27 08:54:00,53.6,44.4,30.40,SSE,159,0.0,3.0,71,0.00,,---,0.00,197.00,VWS V14.01,2013-04-27 12:54:00,
2013-04-27 08:59:00,53.9,44.3,30.40,SSE,159,0.0,3.0,70,0.00,,---,0.00,264.00,VWS V14.01,2013-04-27 12:59:00,
2013-04-27 09:00:00,54.1,44.5,30.39,SSE,159,0.0,3.0,70,0.00,,---,0.00,332.00,VWS V14.01,2013-04-27 13:00:00,
2013-04-27 09:04:00,54.2,44.3,30.39,SSE,159,0.0,0.0,69,0.00,,---,0.00,301.00,VWS V14.01,2013-04-27 13:04:00,
2013-04-27 09:09:00,54.6,44.3,30.39,SSE,159,0.0,0.0,68,0.00,,---,0.00,406.00,VWS V14.01,2013-04-27 13:09:00,
2013-04-27 09:14:00,55.3,44.2,30.38,SSE,159,0.0,0.0,66,0.00,,---,0.00,348.00,VWS V14.01,2013-04-27 13:14:00,
2013-04-27 09:20:00,56.1,43.3,30.38,SSE,159,0.0,0.0,62,0.00,,---,0.00,387.00,VWS V14.01,2013-04-27 13:20:00,
2013-04-27 09:25:00,56.9,41.4,30.38,SSE,159,0.0,0.0,56,0.00,,---,0.00,429.00,VWS V14.01,2013-04-27 13:25:00,
2013-04-27 09:30:00,57.8,40.8,30.38,SSE,162,0.0,4.0,53,0.00,,---,0.00,598.00,VWS V14.01,2013-04-27 13:30:00,
2013-04-27 09:35:00,59.1,40.5,30.38,NNE,13,0.0,0.0,50,0.00,,---,0.00,339.00,VWS V14.01,2013-04-27 13:35:00,
2013-04-27 09:40:00,59.9,40.7,30.38,SSW,209,0.0,3.0,49,0.00,,---,0.00,211.00,VWS V14.01,2013-04-27 13:40:00,
2013-04-27 09:48:00,60.0,39.2,30.39,SSE,167,0.0,4.0,46,0.00,,---,0.00,158.00,VWS V14.01,2013-04-27 13:48:00,
2013-04-27 09:53:00,59.8,40.1,30.39,South,175,0.0,4.0,48,0.00,,---,0.00,216.00,VWS V14.01,2013-04-27 13:53:00,
2013-04-27 09:58:00,59.5,39.8,30.39,South,179,0.0,5.0,48,0.00,,---,0.00,216.00,VWS V14.01,2013-04-27 13:58:00,
2013-04-27 10:00:00,59.3,39.1,30.39,South,181,0.0,5.0,47,0.00,,---,0.00,258.00,VWS V14.01,2013-04-27 14:00:00,
2013-04-27 10:04:00,59.2,40.1,30.39,SW,223,0.0,1.0,49,0.00,,---,0.00,255.00,VWS V14.01,2013-04-27 14:04:00,
2013-04-27 10:09:00,59.2,39.5,30.39,SW,223,0.0,4.0,48,0.00,,---,0.00,227.00,VWS V14.01,2013-04-27 14:09:00,
2013-04-27 10:14:00,59.2,40.6,30.39,SSW,192,0.0,5.0,50,0.00,,---,0.00,199.00,VWS V14.01,2013-04-27 14:14:00,
2013-04-27 10:19:00,59.3,41.2,30.38,SSW,202,0.0,5.0,51,0.00,,---,0.00,229.00,VWS V14.01,2013-04-27 14:19:00,
2013-04-27 10:24:00,59.3,41.7,30.38,SW,226,0.0,5.0,52,0.00,,---,0.00,329.00,VWS V14.01,2013-04-27 14:24:00,
2013-04-27 10:29:00,59.5,41.4,30.39,SW,217,0.0,5.0,51,0.00,,---,0.00,294.00,VWS V14.01,2013-04-27 14:29:00,
2013-04-27 10:30:00,59.5,41.4,30.39,SW,224,1.0,5.0,51,0.00,,---,0.00,332.00,VWS V14.01,2013-04-27 14:30:00,
2013-04-27 10:34:00,59.6,41.5,30.38,South,170,0.0,2.0,51,0.00,,---,0.00,348.00,VWS V14.01,2013-04-27 14:34:00,
2013-04-27 10:39:00,59.6,41.0,30.38,South,188,0.0,4.0,50,0.00,,---,0.00,338.00,VWS V14.01,2013-04-27 14:39:00,
2013-04-27 10:44:00,59.7,42.1,30.38,SW,223,0.0,6.0,52,0.00,,---,0.00,348.00,VWS V14.01,2013-04-27 14:44:00,
2013-04-27 10:50:00,60.0,42.3,30.38,SSW,205,3.0,6.0,52,0.00,,---,0.00,357.00,VWS V14.01,2013-04-27 14:50:00,
2013-04-27 10:55:00,60.3,41.6,30.37,SSW,202,0.0,6.0,50,0.00,,---,0.00,376.00,VWS V14.01,2013-04-27 14:55:00,
2013-04-27 11:00:00,60.5,41.8,30.37,East,93,0.0,6.0,50,0.00,,---,0.00,373.00,VWS V14.01,2013-04-27 15:00:00,
2013-04-27 11:05:00,60.7,42.0,30.37,South,179,1.0,3.0,50,0.00,,---,0.00,369.00,VWS V14.01,2013-04-27 15:05:00,
2013-04-27 11:10:00,60.6,40.8,30.37,SW,215,0.0,4.0,48,0.00,,---,0.00,366.00,VWS V14.01,2013-04-27 15:10:00,
2013-04-27 11:15:00,60.7,41.5,30.37,East,101,0.0,6.0,49,0.00,,---,0.00,418.00,VWS V14.01,2013-04-27 15:15:00,
2013-04-27 11:20:00,60.9,41.6,30.37,South,171,3.0,6.0,49,0.00,,---,0.00,441.00,VWS V14.01,2013-04-27 15:20:00,
2013-04-27 11:25:00,61.2,42.4,30.37,SW,220,3.0,6.0,50,0.00,,---,0.00,582.00,VWS V14.01,2013-04-27 15:25:00,
2013-04-27 11:30:00,61.7,42.4,30.38,SW,229,0.0,6.0,49,0.00,,---,0.00,480.00,VWS V14.01,2013-04-27 15:30:00,
2013-04-27 11:31:00,61.7,42.4,30.38,SSW,209,0.0,6.0,49,0.00,,---,0.00,482.00,VWS V14.01,2013-04-27 15:31:00,
2013-04-27 11:36:00,61.9,43.1,30.38,SSW,204,3.0,4.0,50,0.00,,---,0.00,462.00,VWS V14.01,2013-04-27 15:36:00,
2013-04-27 11:41:00,62.1,42.7,30.38,SSE,165,0.0,7.0,49,0.00,,---,0.00,480.00,VWS V14.01,2013-04-27 15:41:00,
2013-04-27 11:46:00,62.2,43.9,30.38,South,174,0.0,7.0,51,0.00,,---,0.00,501.00,VWS V14.01,2013-04-27 15:46:00,
2013-04-27 11:51:00,62.4,44.0,30.37,South,173,0.0,7.0,51,0.00,,---,0.00,478.00,VWS V14.01,2013-04-27 15:51:00,
2013-04-27 11:56:00,62.4,44.0,30.37,SE,135,4.0,7.0,51,0.00,,---,0.00,432.00,VWS V14.01,2013-04-27 15:56:00,
2013-04-27 12:00:00,62.1,43.8,30.38,NNW,339,0.0,7.0,51,0.00,,---,0.00,292.00,VWS V14.01,2013-04-27 16:00:00,
2013-04-27 12:01:00,62.1,44.3,30.37,SE,146,3.0,7.0,52,0.00,,---,0.00,283.00,VWS V14.01,2013-04-27 16:01:00,
2013-04-27 12:06:00,61.9,44.1,30.38,NNE,26,1.0,4.0,52,0.00,,---,0.00,281.00,VWS V14.01,2013-04-27 16:06:00,
2013-04-27 12:11:00,61.7,44.4,30.38,South,183,0.0,7.0,53,0.00,,---,0.00,234.00,VWS V14.01,2013-04-27 16:11:00,
2013-04-27 12:17:00,61.2,44.4,30.37,South,180,0.0,9.0,54,0.00,,---,0.00,244.00,VWS V14.01,2013-04-27 16:17:00,
2013-04-27 12:22:00,60.8,44.5,30.37,SW,229,2.0,9.0,55,0.00,,---,0.00,322.00,VWS V14.01,2013-04-27 16:22:00,
2013-04-27 12:27:00,60.5,45.2,30.37,East,84,0.0,9.0,57,0.00,,---,0.00,359.00,VWS V14.01,2013-04-27 16:27:00,
2013-04-27 12:30:00,60.5,46.1,30.37,ENE,76,0.0,9.0,59,0.00,,---,0.00,309.00,VWS V14.01,2013-04-27 16:30:00,
2013-04-27 12:32:00,60.5,46.1,30.37,South,186,1.0,9.0,59,0.00,,---,0.00,327.00,VWS V14.01,2013-04-27 16:32:00,
2013-04-27 12:37:00,60.5,45.7,30.37,South,173,0.0,7.0,58,0.00,,---,0.00,246.00,VWS V14.01,2013-04-27 16:37:00,
2013-04-27 12:42:00,60.5,46.1,30.37,WNW,284,0.0,7.0,59,0.00,,---,0.00,192.00,VWS V14.01,2013-04-27 16:42:00,
2013-04-27 12:47:00,60.3,45.5,30.37,SSW,212,5.0,7.0,58,0.00,,---,0.00,172.00,VWS V14.01,2013-04-27 16:47:00,
2013-04-27 12:52:00,60.0,45.7,30.37,South,171,0.0,7.0,59,0.00,,---,0.00,156.00,VWS V14.01,2013-04-27 16:52:00,
2013-04-27 12:58:00,59.6,45.3,30.37,South,188,0.0,7.0,59,0.00,,---,0.00,169.00,VWS V14.01,2013-04-27 16:58:00,
2013-04-27 13:00:00,59.2,45.3,30.37,ENE,70,3.0,7.0,60,0.00,,---,0.00,188.00,VWS V14.01,2013-04-27 17:00:00,
2013-04-27 13:03:00,59.2,45.3,30.37,ENE,70,3.0,7.0,60,0.00,,---,0.00,188.00,VWS V14.01,2013-04-27 17:03:00,
2013-04-27 13:08:00,58.7,45.3,30.36,South,169,0.0,5.0,61,0.00,,---,0.00,223.00,VWS V14.01,2013-04-27 17:08:00,
2013-04-27 13:13:00,58.7,45.3,30.36,SSE,155,0.0,5.0,61,0.00,,---,0.00,244.00,VWS V14.01,2013-04-27 17:13:00,
2013-04-27 13:18:00,58.8,45.8,30.36,SE,134,0.0,5.0,62,0.00,,---,0.00,243.00,VWS V14.01,2013-04-27 17:18:00,
2013-04-27 13:23:00,58.9,45.9,30.36,SSW,211,0.0,5.0,62,0.00,,---,0.00,234.00,VWS V14.01,2013-04-27 17:23:00,
2013-04-27 13:28:00,59.0,46.4,30.36,WSW,245,0.0,5.0,63,0.00,,---,0.00,230.00,VWS V14.01,2013-04-27 17:28:00,
2013-04-27 13:30:00,59.1,47.0,30.36,SW,234,1.0,5.0,64,0.00,,---,0.00,199.00,VWS V14.01,2013-04-27 17:30:00,
2013-04-27 13:33:00,59.1,47.0,30.36,SW,232,0.0,3.0,64,0.00,,---,0.00,188.00,VWS V14.01,2013-04-27 17:33:00,
2013-04-27 13:38:00,59.0,46.4,30.36,SW,225,0.0,7.0,63,0.00,,---,0.00,169.00,VWS V14.01,2013-04-27 17:38:00,
2013-04-27 13:43:00,58.8,46.7,30.36,South,171,0.0,7.0,64,0.00,,---,0.00,156.00,VWS V14.01,2013-04-27 17:43:00,
2013-04-27 13:49:00,58.6,46.9,30.36,South,186,0.0,7.0,65,0.00,,---,0.00,172.00,VWS V14.01,2013-04-27 17:49:00,
2013-04-27 13:54:00,58.4,47.1,30.37,SSE,167,0.0,7.0,66,0.00,,---,0.00,171.00,VWS V14.01,2013-04-27 17:54:00,
2013-04-27 13:59:00,58.1,47.6,30.37,ENE,74,0.0,7.0,68,0.00,,---,0.00,183.00,VWS V14.01,2013-04-27 17:59:00,
2013-04-27 14:00:00,57.8,48.1,30.37,NE,39,3.0,7.0,70,0.00,,---,0.00,193.00,VWS V14.01,2013-04-27 18:00:00,
2013-04-27 14:04:00,57.7,48.0,30.37,South,191,0.0,3.0,70,0.00,,---,0.00,186.00,VWS V14.01,2013-04-27 18:04:00,
2013-04-27 14:09:00,57.4,47.7,30.37,NE,37,0.0,4.0,70,0.00,,---,0.00,211.00,VWS V14.01,2013-04-27 18:09:00,
2013-04-27 14:14:00,57.2,47.9,30.37,SSE,148,0.0,4.0,71,0.00,,---,0.00,195.00,VWS V14.01,2013-04-27 18:14:00,
2013-04-27 14:19:00,57.0,48.4,30.37,SW,235,0.0,4.0,73,0.00,,---,0.00,172.00,VWS V14.01,2013-04-27 18:19:00,
2013-04-27 14:24:00,56.9,48.3,30.37,West,268,0.0,4.0,73,0.00,,---,0.00,171.00,VWS V14.01,2013-04-27 18:24:00,
2013-04-27 14:29:00,56.8,48.2,30.37,ESE,118,0.0,4.0,73,0.00,,---,0.00,167.00,VWS V14.01,2013-04-27 18:29:00,
2013-04-27 14:30:00,56.9,49.4,30.37,SW,216,1.0,4.0,76,0.00,,---,0.00,179.00,VWS V14.01,2013-04-27 18:30:00,
2013-04-27 14:35:00,56.9,48.7,30.37,South,180,0.0,3.0,74,0.00,,---,0.00,195.00,VWS V14.01,2013-04-27 18:35:00,
2013-04-27 14:40:00,57.0,49.2,30.36,South,186,0.0,3.0,75,0.00,,---,0.00,163.00,VWS V14.01,2013-04-27 18:40:00,
2013-04-27 14:45:00,57.0,47.7,30.37,South,186,0.0,7.0,71,0.00,,---,0.00,120.00,VWS V14.01,2013-04-27 18:45:00,
2013-04-27 14:50:00,57.0,47.7,30.37,South,173,2.0,7.0,71,0.00,,---,0.00,132.00,VWS V14.01,2013-04-27 18:50:00,
2013-04-27 14:55:00,56.9,48.0,30.36,South,184,1.0,7.0,72,0.00,,---,0.00,174.00,VWS V14.01,2013-04-27 18:55:00,
2013-04-27 15:00:00,56.8,48.2,30.36,South,178,0.0,7.0,73,0.00,,---,0.00,128.00,VWS V14.01,2013-04-27 19:00:00,
2013-04-27 15:05:00,56.8,48.6,30.36,SW,222,2.0,4.0,74,0.00,,---,0.00,135.00,VWS V14.01,2013-04-27 19:05:00,
2013-04-27 15:10:00,56.7,49.2,30.36,WSW,247,0.0,4.0,76,0.00,,---,0.00,120.00,VWS V14.01,2013-04-27 19:10:00,
2013-04-27 15:16:00,56.5,49.0,30.36,SE,143,0.0,5.0,76,0.00,,---,0.00,98.00,VWS V14.01,2013-04-27 19:16:00,
2013-04-27 15:21:00,56.3,49.5,30.36,SSW,192,2.0,5.0,78,0.00,,---,0.00,98.00,VWS V14.01,2013-04-27 19:21:00,
2013-04-27 15:26:00,56.0,49.6,30.36,WSW,255,0.0,5.0,79,0.00,,---,0.00,91.00,VWS V14.01,2013-04-27 19:26:00,
2013-04-27 15:30:00,55.7,49.6,30.36,SW,227,0.0,5.0,80,0.01,,---,0.01,77.00,VWS V14.01,2013-04-27 19:30:00,
2013-04-27 15:31:00,55.7,49.3,30.36,SW,227,0.0,5.0,79,0.01,,---,0.01,76.00,VWS V14.01,2013-04-27 19:31:00,
2013-04-27 15:36:00,55.5,49.8,30.36,SW,227,0.0,0.0,81,0.01,,---,0.01,84.00,VWS V14.01,2013-04-27 19:36:00,
2013-04-27 15:41:00,55.2,49.8,30.35,SW,227,0.0,0.0,82,0.01,,---,0.01,77.00,VWS V14.01,2013-04-27 19:41:00,
2013-04-27 15:46:00,54.9,49.8,30.35,SW,227,0.0,0.0,83,0.01,,---,0.01,58.00,VWS V14.01,2013-04-27 19:46:00,
2013-04-27 15:51:00,54.8,50.1,30.35,SW,227,0.0,0.0,84,0.01,,---,0.01,65.00,VWS V14.01,2013-04-27 19:51:00,
2013-04-27 15:57:00,54.6,49.9,30.35,SW,227,0.0,0.0,84,0.01,,---,0.01,72.00,VWS V14.01,2013-04-27 19:57:00,
2013-04-27 16:00:00,54.3,49.9,30.35,SW,227,0.0,0.0,85,0.01,,---,0.01,74.00,VWS V14.01,2013-04-27 20:00:00,
2013-04-27 16:02:00,54.4,50.0,30.35,SW,227,0.0,0.0,85,0.01,,---,0.01,76.00,VWS V14.01,2013-04-27 20:02:00,
2013-04-27 16:07:00,54.2,49.8,30.35,SW,223,0.0,0.0,85,0.01,,---,0.01,67.00,VWS V14.01,2013-04-27 20:07:00,
2013-04-27 16:12:00,54.0,49.9,30.35,SW,223,0.0,0.0,86,0.01,,---,0.01,93.00,VWS V14.01,2013-04-27 20:12:00,
2013-04-27 16:17:00,54.0,49.9,30.35,SW,223,0.0,0.0,86,0.01,,---,0.01,76.00,VWS V14.01,2013-04-27 20:17:00,
2013-04-27 16:22:00,53.9,50.1,30.35,SW,223,0.0,1.0,87,0.01,,---,0.01,70.00,VWS V14.01,2013-04-27 20:22:00,
2013-04-27 16:27:00,53.9,49.8,30.35,SW,223,0.0,1.0,86,0.01,,---,0.01,93.00,VWS V14.01,2013-04-27 20:27:00,
2013-04-27 16:30:00,53.9,49.8,30.35,SW,216,0.0,1.0,86,0.01,,---,0.01,93.00,VWS V14.01,2013-04-27 20:30:00,
2013-04-27 16:32:00,53.9,49.8,30.35,SW,223,0.0,1.0,86,0.01,,---,0.01,93.00,VWS V14.01,2013-04-27 20:32:00,
2013-04-27 16:37:00,53.9,50.1,30.34,SW,223,0.0,0.0,87,0.00,,---,0.01,95.00,VWS V14.01,2013-04-27 20:37:00,
2013-04-27 16:43:00,53.9,49.5,30.34,NE,36,0.0,5.0,85,0.00,,---,0.01,98.00,VWS V14.01,2013-04-27 20:43:00,
2013-04-27 16:48:00,54.0,49.6,30.33,NE,36,0.0,5.0,85,0.00,,---,0.01,79.00,VWS V14.01,2013-04-27 20:48:00,
2013-04-27 16:53:00,54.0,49.6,30.33,NE,36,0.0,5.0,85,0.00,,---,0.01,100.00,VWS V14.01,2013-04-27 20:53:00,
2013-04-27 16:58:00,54.1,49.7,30.34,ENE,75,0.0,5.0,85,0.00,,---,0.01,100.00,VWS V14.01,2013-04-27 20:58:00,
2013-04-27 17:00:00,54.0,49.3,30.33,East,90,0.0,5.0,84,0.00,,---,0.01,128.00,VWS V14.01,2013-04-27 21:00:00,
2013-04-27 17:03:00,54.0,49.0,30.33,East,90,0.0,0.0,83,0.00,,---,0.01,128.00,VWS V14.01,2013-04-27 21:03:00,
2013-04-27 17:08:00,54.0,49.3,30.33,SSE,164,0.0,3.0,84,0.00,,---,0.01,134.00,VWS V14.01,2013-04-27 21:08:00,
2013-04-27 17:13:00,54.0,49.3,30.33,SW,220,2.0,3.0,84,0.00,,---,0.01,142.00,VWS V14.01,2013-04-27 21:13:00,
2013-04-27 17:18:00,54.1,49.1,30.33,SE,142,0.0,4.0,83,0.00,,---,0.01,118.00,VWS V14.01,2013-04-27 21:18:00,
2013-04-27 17:23:00,54.2,49.2,30.33,ESE,103,2.0,5.0,83,0.00,,---,0.01,95.00,VWS V14.01,2013-04-27 21:23:00,
2013-04-27 17:29:00,54.3,49.3,30.33,SE,128,3.0,5.0,83,0.00,,---,0.01,76.00,VWS V14.01,2013-04-27 21:29:00,
2013-04-27 17:30:00,54.3,49.3,30.33,South,178,0.0,6.0,83,0.00,,---,0.01,67.00,VWS V14.01,2013-04-27 21:30:00,
2013-04-27 17:34:00,54.3,49.3,30.33,SSE,168,3.0,4.0,83,0.00,,---,0.01,63.00,VWS V14.01,2013-04-27 21:34:00,
2013-04-27 17:39:00,54.2,49.2,30.33,SSE,163,3.0,7.0,83,0.01,,---,0.02,51.00,VWS V14.01,2013-04-27 21:39:00,
2013-04-27 17:44:00,54.0,49.3,30.33,South,174,6.0,7.0,84,0.01,,---,0.02,72.00,VWS V14.01,2013-04-27 21:44:00,
2013-04-27 17:49:00,53.8,49.1,30.33,SSW,192,0.0,7.0,84,0.01,,---,0.02,104.00,VWS V14.01,2013-04-27 21:49:00,
2013-04-27 17:54:00,53.7,49.3,30.33,SSE,150,4.0,7.0,85,0.01,,---,0.02,128.00,VWS V14.01,2013-04-27 21:54:00,
2013-04-27 17:59:00,53.6,49.5,30.33,South,187,0.0,7.0,86,0.01,,---,0.02,149.00,VWS V14.01,2013-04-27 21:59:00,
2013-04-27 18:00:00,53.5,49.4,30.32,South,182,0.0,7.0,86,0.01,,---,0.02,130.00,VWS V14.01,2013-04-27 22:00:00,
2013-04-27 18:04:00,53.4,49.3,30.32,South,188,0.0,7.0,86,0.01,,---,0.02,120.00,VWS V14.01,2013-04-27 22:04:00,
2013-04-27 18:10:00,53.4,49.6,30.32,SSW,200,1.0,7.0,87,0.01,,---,0.02,102.00,VWS V14.01,2013-04-27 22:10:00,
2013-04-27 18:15:00,53.3,49.5,30.32,SSW,213,2.0,7.0,87,0.01,,---,0.02,81.00,VWS V14.01,2013-04-27 22:15:00,
2013-04-27 18:20:00,53.3,49.5,30.32,SSW,213,0.0,7.0,87,0.01,,---,0.02,67.00,VWS V14.01,2013-04-27 22:20:00,
2013-04-27 18:25:00,53.3,49.5,30.32,SE,146,3.0,7.0,87,0.01,,---,0.02,58.00,VWS V14.01,2013-04-27 22:25:00,
2013-04-27 18:30:00,53.2,49.4,30.32,SSE,165,0.0,7.0,87,0.01,,---,0.02,40.00,VWS V14.01,2013-04-27 22:30:00,
2013-04-27 18:35:00,53.2,49.4,30.32,SE,138,0.0,4.0,87,0.01,,---,0.02,33.00,VWS V14.01,2013-04-27 22:35:00,
2013-04-27 18:40:00,53.1,49.3,30.32,SW,215,0.0,4.0,87,0.01,,---,0.02,40.00,VWS V14.01,2013-04-27 22:40:00,
2013-04-27 18:45:00,53.0,49.2,30.32,SSW,196,0.0,7.0,87,0.01,,---,0.02,42.00,VWS V14.01,2013-04-27 22:45:00,
2013-04-27 18:51:00,52.9,49.5,30.32,South,171,0.0,7.0,88,0.01,,---,0.02,42.00,VWS V14.01,2013-04-27 22:51:00,
2013-04-27 18:56:00,52.9,49.5,30.32,SE,131,0.0,7.0,88,0.02,,---,0.03,33.00,VWS V14.01,2013-04-27 22:56:00,
2013-04-27 19:00:00,52.8,49.7,30.32,SSE,166,0.0,7.0,89,0.02,,---,0.03,23.00,VWS V14.01,2013-04-27 23:00:00,
2013-04-27 19:01:00,52.8,49.7,30.32,SSE,166,1.0,7.0,89,0.02,,---,0.03,30.00,VWS V14.01,2013-04-27 23:01:00,
2013-04-27 19:06:00,52.7,49.5,30.32,SW,221,0.0,3.0,89,0.01,,---,0.03,26.00,VWS V14.01,2013-04-27 23:06:00,
2013-04-27 19:11:00,52.6,49.5,30.32,SW,224,0.0,5.0,89,0.01,,---,0.03,19.00,VWS V14.01,2013-04-27 23:11:00,
2013-04-27 19:16:00,52.5,49.4,30.32,SSE,160,0.0,5.0,89,0.02,,---,0.04,14.00,VWS V14.01,2013-04-27 23:16:00,
2013-04-27 19:21:00,52.4,49.6,30.33,SE,129,0.0,5.0,90,0.02,,---,0.04,9.00,VWS V14.01,2013-04-27 23:21:00,
2013-04-27 19:26:00,52.3,49.5,30.32,SSE,150,0.0,5.0,90,0.02,,---,0.04,7.00,VWS V14.01,2013-04-27 23:26:00,
2013-04-27 19:30:00,52.2,49.4,30.33,NW,307,0.0,5.0,90,0.02,,---,0.04,5.00,VWS V14.01,2013-04-27 23:30:00,
2013-04-27 19:31:00,52.3,49.5,30.33,SSE,150,0.0,5.0,90,0.02,,---,0.04,5.00,VWS V14.01,2013-04-27 23:31:00,
2013-04-27 19:37:00,52.2,49.7,30.33,NW,306,0.0,0.0,91,0.03,,---,0.05,0.00,VWS V14.01,2013-04-27 23:37:00,
2013-04-27 19:42:00,52.2,49.7,30.33,SW,223,0.0,4.0,91,0.03,,---,0.05,0.00,VWS V14.01,2013-04-27 23:42:00,
2013-04-27 19:47:00,52.1,49.6,30.32,SSW,193,0.0,4.0,91,0.04,,---,0.06,0.00,VWS V14.01,2013-04-27 23:47:00,
2013-04-27 19:52:00,52.1,49.6,30.32,SSW,193,0.0,4.0,91,0.04,,---,0.06,0.00,VWS V14.01,2013-04-27 23:52:00,
2013-04-27 19:57:00,52.0,49.8,30.32,SSE,156,0.0,4.0,92,0.04,,---,0.06,0.00,VWS V14.01,2013-04-27 23:57:00,
2013-04-27 20:00:00,51.9,49.7,30.32,South,174,0.0,4.0,92,0.04,,---,0.06,0.00,VWS V14.01,2013-04-28 00:00:00,
2013-04-27 20:02:00,51.9,49.7,30.32,South,174,0.0,4.0,92,0.04,,---,0.06,0.00,VWS V14.01,2013-04-28 00:02:00,
2013-04-27 20:07:00,51.9,49.7,30.32,SE,128,0.0,4.0,92,0.04,,---,0.07,0.00,VWS V14.01,2013-04-28 00:07:00,
2013-04-27 20:12:00,51.8,49.5,30.32,ESE,109,0.0,4.0,92,0.04,,---,0.07,0.00,VWS V14.01,2013-04-28 00:12:00,
2013-04-27 20:18:00,51.7,49.5,30.32,SSW,207,0.0,4.0,92,0.04,,---,0.07,0.00,VWS V14.01,2013-04-28 00:18:00,
2013-04-27 20:23:00,51.6,49.4,30.32,SSW,207,0.0,4.0,92,0.04,,---,0.07,0.00,VWS V14.01,2013-04-28 00:23:00,
2013-04-27 20:28:00,51.5,49.3,30.32,SE,136,0.0,4.0,92,0.04,,---,0.07,0.00,VWS V14.01,2013-04-28 00:28:00,
2013-04-27 20:30:00,51.4,49.2,30.32,SSW,201,0.0,4.0,92,0.04,,---,0.07,0.00,VWS V14.01,2013-04-28 00:30:00,
2013-04-27 20:33:00,51.4,49.2,30.32,SSW,201,0.0,0.0,92,0.03,,---,0.07,0.00,VWS V14.01,2013-04-28 00:33:00,
2013-04-27 20:38:00,51.3,49.1,30.32,SSE,159,1.0,4.0,92,0.03,,---,0.07,0.00,VWS V14.01,2013-04-28 00:38:00,
2013-04-27 20:43:00,51.3,49.1,30.32,SE,141,0.0,4.0,92,0.03,,---,0.07,0.00,VWS V14.01,2013-04-28 00:43:00,
2013-04-27 20:48:00,51.2,49.0,30.32,SSE,161,0.0,4.0,92,0.03,,---,0.07,0.00,VWS V14.01,2013-04-28 00:48:00,
2013-04-27 20:53:00,51.2,49.2,30.31,SSW,194,0.0,4.0,93,0.03,,---,0.07,0.00,VWS V14.01,2013-04-28 00:53:00,
2013-04-27 20:58:00,51.1,49.2,30.31,South,181,0.0,4.0,93,0.03,,---,0.07,0.00,VWS V14.01,2013-04-28 00:58:00,
2013-04-27 21:00:00,51.1,49.2,30.31,East,80,0.0,4.0,93,0.03,,---,0.07,0.00,VWS V14.01,2013-04-28 01:00:00,
2013-04-27 21:03:00,51.0,49.0,30.31,East,88,0.0,0.0,93,0.01,,---,0.07,0.00,VWS V14.01,2013-04-28 01:03:00,
2013-04-27 21:09:00,51.0,49.0,30.31,ENE,57,0.0,4.0,93,0.01,,---,0.07,0.00,VWS V14.01,2013-04-28 01:09:00,
2013-04-27 21:14:00,50.8,48.8,30.31,ENE,57,0.0,4.0,93,0.01,,---,0.07,0.00,VWS V14.01,2013-04-28 01:14:00,
2013-04-27 21:19:00,50.7,48.5,30.31,ESE,122,0.0,5.0,92,0.01,,---,0.07,0.00,VWS V14.01,2013-04-28 01:19:00,
2013-04-27 21:24:00,50.6,48.7,30.31,ESE,122,0.0,5.0,93,0.01,,---,0.07,0.00,VWS V14.01,2013-04-28 01:24:00,
2013-04-27 21:29:00,50.5,48.3,30.31,SW,214,0.0,5.0,92,0.01,,---,0.07,0.00,VWS V14.01,2013-04-28 01:29:00,
2013-04-27 21:30:00,50.4,48.5,30.31,SW,214,0.0,5.0,93,0.01,,---,0.07,0.00,VWS V14.01,2013-04-28 01:30:00,
2013-04-27 21:34:00,50.4,48.5,30.31,ESE,115,0.0,2.0,93,0.00,,---,0.07,0.00,VWS V14.01,2013-04-28 01:34:00,
2013-04-27 21:39:00,50.3,48.1,30.31,SE,142,0.0,2.0,92,0.00,,---,0.07,0.00,VWS V14.01,2013-04-28 01:39:00,
2013-04-27 21:44:00,50.3,48.1,30.31,SE,142,0.0,2.0,92,0.00,,---,0.07,0.00,VWS V14.01,2013-04-28 01:44:00,
2013-04-27 21:50:00,50.2,48.0,30.31,ESE,110,0.0,3.0,92,0.00,,---,0.07,0.00,VWS V14.01,2013-04-28 01:50:00,
2013-04-27 21:55:00,50.1,48.2,30.31,SSE,159,0.0,4.0,93,0.00,,---,0.07,0.00,VWS V14.01,2013-04-28 01:55:00,
2013-04-27 22:00:00,50.1,48.2,30.31,SSE,155,0.0,5.0,93,0.00,,---,0.07,0.00,VWS V14.01,2013-04-28 02:00:00,
2013-04-27 22:05:00,50.1,48.2,30.31,South,169,1.0,5.0,93,0.00,,---,0.07,0.00,VWS V14.01,2013-04-28 02:05:00,
2013-04-27 22:10:00,50.1,48.2,30.31,South,187,4.0,7.0,93,0.00,,---,0.07,0.00,VWS V14.01,2013-04-28 02:10:00,
2013-04-27 22:15:00,50.1,48.2,30.31,South,177,0.0,7.0,93,0.00,,---,0.07,0.00,VWS V14.01,2013-04-28 02:15:00,
2013-04-27 22:20:00,50.1,48.2,30.31,SSE,168,0.0,9.0,93,0.00,,---,0.07,0.00,VWS V14.01,2013-04-28 02:20:00,
2013-04-27 22:25:00,50.1,48.2,30.31,SSW,196,3.0,9.0,93,0.00,,---,0.07,0.00,VWS V14.01,2013-04-28 02:25:00,
2013-04-27 22:30:00,50.2,48.3,30.32,SSW,193,0.0,9.0,93,0.01,,---,0.08,0.00,VWS V14.01,2013-04-28 02:30:00,
2013-04-27 22:31:00,50.1,48.2,30.31,South,178,0.0,9.0,93,0.01,,---,0.08,0.00,VWS V14.01,2013-04-28 02:31:00,
2013-04-27 22:36:00,50.2,48.3,30.31,SSE,165,0.0,7.0,93,0.01,,---,0.08,0.00,VWS V14.01,2013-04-28 02:36:00,
2013-04-27 22:41:00,50.1,48.2,30.31,SSE,160,0.0,7.0,93,0.01,,---,0.08,0.00,VWS V14.01,2013-04-28 02:41:00,
2013-04-27 22:46:00,50.2,48.3,30.31,SSE,161,0.0,7.0,93,0.01,,---,0.08,0.00,VWS V14.01,2013-04-28 02:46:00,
2013-04-27 22:51:00,50.2,48.3,30.31,South,170,0.0,7.0,93,0.01,,---,0.08,0.00,VWS V14.01,2013-04-28 02:51:00,
2013-04-27 22:56:00,50.2,48.3,30.31,SSE,166,0.0,7.0,93,0.01,,---,0.08,0.00,VWS V14.01,2013-04-28 02:56:00,
2013-04-27 23:00:00,50.2,48.3,30.31,SSW,202,3.0,7.0,93,0.01,,---,0.08,0.00,VWS V14.01,2013-04-28 03:00:00,
2013-04-27 23:01:00,50.2,48.3,30.31,SSE,166,0.0,7.0,93,0.01,,---,0.08,0.00,VWS V14.01,2013-04-28 03:01:00,
2013-04-27 23:06:00,50.2,48.3,30.31,SSE,163,0.0,6.0,93,0.01,,---,0.08,0.00,VWS V14.01,2013-04-28 03:06:00,
2013-04-27 23:11:00,50.2,48.3,30.30,SSE,163,0.0,6.0,93,0.02,,---,0.09,0.00,VWS V14.01,2013-04-28 03:11:00,
2013-04-27 23:17:00,50.2,48.3,30.31,SSE,161,3.0,7.0,93,0.02,,---,0.09,0.00,VWS V14.01,2013-04-28 03:17:00,
2013-04-27 23:22:00,50.2,48.3,30.30,SSW,199,3.0,7.0,93,0.02,,---,0.09,0.00,VWS V14.01,2013-04-28 03:22:00,
2013-04-27 23:27:00,50.1,48.2,30.30,South,171,0.0,7.0,93,0.02,,---,0.09,0.00,VWS V14.01,2013-04-28 03:27:00,
2013-04-27 23:30:00,50.0,48.1,30.29,South,169,2.0,7.0,93,0.02,,---,0.09,0.00,VWS V14.01,2013-04-28 03:30:00,
2013-04-27 23:32:00,50.0,48.1,30.29,South,188,5.0,7.0,93,0.02,,---,0.09,0.00,VWS V14.01,2013-04-28 03:32:00,
2013-04-27 23:37:00,49.9,48.0,30.30,South,182,0.0,4.0,93,0.01,,---,0.09,0.00,VWS V14.01,2013-04-28 03:37:00,
2013-04-27 23:42:00,49.9,48.0,30.30,South,173,5.0,5.0,93,0.01,,---,0.09,0.00,VWS V14.01,2013-04-28 03:42:00,
2013-04-27 23:47:00,49.7,47.8,30.30,South,184,0.0,5.0,93,0.01,,---,0.09,0.00,VWS V14.01,2013-04-28 03:47:00,
2013-04-27 23:52:00,49.7,47.8,30.29,South,169,0.0,5.0,93,0.01,,---,0.09,0.00,VWS V14.01,2013-04-28 03:52:00,
2013-04-27 23:57:00,49.6,47.7,30.29,SSE,155,0.0,7.0,93,0.01,,---,0.09,0.00,VWS V14.01,2013-04-28 03:57:00,